This is the latest recevied weather packets stored in our database for station/object K6GMW. If no packets are shown the sender has not sent any weather packets the latest 10 day(s).
| Time | Temp. | Humidity | Pressure | Rain* | Wind** | Luminosity | Snow |
|---|---|---|---|---|---|---|---|
| 1787960474 | 36.67° C | 37% | 1015.9 hPa | 0 mm | - | 84 W/m² | - |
| 1787960174 | 36.11° C | 37% | 1015.8 hPa | 0 mm | - | 92 W/m² | - |
| 1787959868 | 36.11° C | 38% | 1015.9 hPa | 0 mm | - | 102 W/m² | - |
| 1787959563 | 35.56° C | 38% | 1015.8 hPa | 0 mm | - | 113 W/m² | - |
| 1787959258 | 35.56° C | 38% | 1016.1 hPa | 0 mm | - | 81 W/m² | - |
| 1787958958 | 36.11° C | 38% | 1015.8 hPa | 0 mm | - | 79 W/m² | - |
| 1787958654 | 36.11° C | 37% | 1016 hPa | 0 mm | - | 120 W/m² | - |
| 1787958349 | 36.67° C | 36% | 1016 hPa | 0 mm | - | 101 W/m² | - |
| 1787958045 | 37.78° C | 36% | 1016 hPa | 0 mm | - | 137 W/m² | - |
| 1787957743 | 37.22° C | 36% | 1015.7 hPa | 0 mm | - | 227 W/m² | - |
| 1787957439 | 37.78° C | 36% | 1015.9 hPa | 0 mm | - | 255 W/m² | - |
| 1787957138 | 38.33° C | 36% | 1015.7 hPa | 0 mm | - | 241 W/m² | - |
| 1787956838 | 38.33° C | 35% | 1015.7 hPa | 0 mm | - | 312 W/m² | - |
| 1787956532 | 38.33° C | 35% | 1015.8 hPa | 0 mm | - | 328 W/m² | - |
| 1787956228 | 37.22° C | 35% | 1015.8 hPa | 0 mm | - | 325 W/m² | - |
| 1787955928 | 37.78° C | 35% | 1015.6 hPa | 0 mm | - | 333 W/m² | - |
| 1787955623 | 37.78° C | 35% | 1015.7 hPa | 0 mm | - | 341 W/m² | - |
| 1787955320 | 37.78° C | 35% | 1015.7 hPa | 0 mm | - | 368 W/m² | - |
| 1787955018 | 37.78° C | 35% | 1015.7 hPa | 0 mm | - | 379 W/m² | - |
| 1787954714 | 37.78° C | 37% | 1015.7 hPa | 0 mm | - | 400 W/m² | - |
| 1787954417 | 37.78° C | 36% | 1015.8 hPa | 0 mm | - | 431 W/m² | - |
| 1787954104 | 37.22° C | 37% | 1015.9 hPa | 0 mm | - | 417 W/m² | - |
| 1787953802 | 37.78° C | 37% | 1015.9 hPa | 0 mm | - | 144 W/m² | - |
| 1787953498 | 37.78° C | 36% | 1015.8 hPa | 0 mm | - | 458 W/m² | - |
| 1787953197 | 37.78° C | 37% | 1015.9 hPa | 0 mm | - | 483 W/m² | - |
* Rain latest hour (hover to see other rain measurements)
** Current wind speed in m/s (hover to see current wind gust speed)